Rochester, Indiana, United States (46975)
Lat: 41.06N, Lon: 86.22W
Wx Zone: INZ015
Local Info
Past Weather Observations for Today

NOTE: This archive is for the closest National Weather Service station to Rochester. Information may differ from the station used for current weather conditions.

Click here for Long-term Archive

Time Weather Temperature Dewpoint Humidity Pressure Winds Precip Visibility
10:15
Overcast
28°F / -2°C 12°F / -11°C 51% 30.06 in
(1018 mb)
NNW 12.7 mph
(NNW 20 kph)
- 10SM
09:55
Overcast
27°F / -3°C 14°F / -10°C 59% 30.06 in
(1018 mb)
NNW 10.4 mph
(NNW 17 kph)
- 10SM
09:35
Overcast
27°F / -3°C 14°F / -10°C 59% 30.06 in
(1018 mb)
NNW 9.2 mph
(NNW 15 kph)
- 10SM
09:15
Mostly Cloudy
28°F / -2°C 14°F / -10°C 55% 30.06 in
(1018 mb)
N 10.4 mph
(N 17 kph)
- 10SM
08:55
Partly Cloudy
27°F / -3°C 14°F / -10°C 59% 30.06 in
(1018 mb)
N 15 mph
(N 24 kph)
- 10SM
08:35
Partly Cloudy
27°F / -3°C 14°F / -10°C 59% 30.06 in
(1018 mb)
N 11.5 mph
(N 19 kph)
- 10SM
08:15
Partly Cloudy
27°F / -3°C 14°F / -10°C 59% 30.06 in
(1018 mb)
N 11.5 mph
(N 19 kph)
- 10SM
07:55
Partly Cloudy
27°F / -3°C 14°F / -10°C 59% 30.06 in
(1018 mb)
N 9.2 mph
(N 15 kph)
- 10SM
07:35
Overcast
27°F / -3°C 14°F / -10°C 59% 30.06 in
(1018 mb)
NNE 8.1 mph
(NNE 13 kph)
- 10SM
07:15
Overcast
27°F / -3°C 14°F / -10°C 59% 30.06 in
(1018 mb)
N 6.9 mph
(N 11 kph)
- 10SM
06:55
Overcast
27°F / -3°C 16°F / -9°C 64% 30.06 in
(1018 mb)
N 6.9 mph
(N 11 kph)
- 10SM
06:35
Mostly Cloudy
27°F / -3°C 16°F / -9°C 64% 30.04 in
(1017 mb)
N 8.1 mph
(N 13 kph)
- 10SM
06:15
Overcast
27°F / -3°C 18°F / -8°C 69% 30.04 in
(1017 mb)
N 12.7 mph
(N 20 kph)
- 10SM
05:55
Overcast
28°F / -2°C 19°F / -7°C 69% 30.04 in
(1017 mb)
N 12.7 mph
(N 20 kph)
- 10SM
05:35
Overcast
Light Snow
28°F / -2°C 21°F / -6°C 74% 30.04 in
(1017 mb)
NNW 6.9 mph
(NNW 11 kph)
- 10SM
05:15
Overcast
28°F / -2°C 23°F / -5°C 80% 30.04 in
(1017 mb)
NNW 6.9 mph
(NNW 11 kph)
- 10SM
04:55
Overcast
28°F / -2°C 23°F / -5°C 80% 30.01 in
(1016 mb)
NNW 5.8 mph
(NNW 9 kph)
- 10SM
04:35
Overcast
28°F / -2°C 23°F / -5°C 80% 30.01 in
(1016 mb)
N 5.8 mph
(N 9 kph)
- 10SM
04:15
Overcast
28°F / -2°C 23°F / -5°C 80% 30.01 in
(1016 mb)
N 6.9 mph
(N 11 kph)
- 10SM
03:55
Overcast
30°F / -1°C 23°F / -5°C 75% 30.01 in
(1016 mb)
N 9.2 mph
(N 15 kph)
- 10SM
03:35
Overcast
30°F / -1°C 25°F / -4°C 80% 30.01 in
(1016 mb)
NNW 8.1 mph
(NNW 13 kph)
- 10SM
03:15
Overcast
30°F / -1°C 25°F / -4°C 80% 30.01 in
(1016 mb)
NNW 9.2 mph
(NNW 15 kph)
- 10SM
02:55
Mostly Cloudy
30°F / -1°C 25°F / -4°C 80% 30.01 in
(1016 mb)
NNW 8.1 mph
(NNW 13 kph)
- 10SM
02:35
Clear
30°F / -1°C 23°F / -5°C 75% 30.01 in
(1016 mb)
NW 8.1 mph
(NW 13 kph)
- 10SM
02:15
Clear
30°F / -1°C 23°F / -5°C 75% 30.01 in
(1016 mb)
NW 9.2 mph
(NW 15 kph)
- 10SM
01:55
Clear
30°F / -1°C 23°F / -5°C 75% 30.01 in
(1016 mb)
NNW 5.8 mph
(NNW 9 kph)
- 10SM
01:35
Clear
30°F / -1°C 25°F / -4°C 80% 30.01 in
(1016 mb)
NNW 5.8 mph
(NNW 9 kph)
- 10SM
01:15
Partly Cloudy
30°F / -1°C 25°F / -4°C 80% 30.01 in
(1016 mb)
NNW 5.8 mph
(NNW 9 kph)
- 10SM
00:55
Overcast
30°F / -1°C 27°F / -3°C 86% 30.01 in
(1016 mb)
N 5.8 mph
(N 9 kph)
- 10SM
00:35
Mostly Cloudy
30°F / -1°C 27°F / -3°C 86% 30.01 in
(1016 mb)
NNW 5.8 mph
(NNW 9 kph)
- 10SM
00:15
Mostly Cloudy
30°F / -1°C 27°F / -3°C 86% 30.01 in
(1016 mb)
NNW 5.8 mph
(NNW 9 kph)
- 10SM
Time Weather Temperature Dewpoint Humidity Pressure Winds Precip Visibility


Weather for websites

WeatherForYou.com, LLC is not responsible for any damages or problems caused by this service. Current weather conditions are obtained from the closest station including government and personal stations which may have varying degrees of accuracy. Weather forecasts are derived from the NOAA NDFD. Like all things, this site belongs to Jesus Christ... He just trusts me to maintain it. If you have any questions or comments email webmaster@weatherforyou.com

Copyright © 2015, WeatherForYou.com LLC. All rights reserved.